TimeAKDT,TemperatureF,Dew PointF,Humidity,Sea Level PressureIn,VisibilityMPH,Wind Direction,Wind SpeedMPH,Gust SpeedMPH,PrecipitationIn,Events,Conditions,WindDirDegrees,DateUTC
12:53 AM,53.1,45.0,74,29.66,10.0,SSE,25.3,32.2,N/A,,Overcast,160,2013-09-03 08:53:00
1:53 AM,52.0,46.0,80,29.64,10.0,SSE,16.1,31.1,N/A,,Scattered Clouds,150,2013-09-03 09:53:00
2:53 AM,52.0,45.0,77,29.65,10.0,SSE,19.6,23.0,N/A,,Overcast,160,2013-09-03 10:53:00
3:53 AM,50.0,46.0,86,29.62,10.0,SSE,19.6,-,N/A,,Partly Cloudy,160,2013-09-03 11:53:00
4:53 AM,51.1,45.0,80,29.59,10.0,South,10.4,19.6,N/A,,Partly Cloudy,180,2013-09-03 12:53:00
5:53 AM,52.0,44.1,74,29.58,10.0,South,15.0,23.0,N/A,,Mostly Cloudy,190,2013-09-03 13:53:00
6:53 AM,51.1,44.1,77,29.57,10.0,South,10.4,-,0.00,Rain,Light Rain,170,2013-09-03 14:53:00
7:53 AM,51.1,44.1,77,29.55,10.0,SSE,3.5,-,0.00,,Overcast,150,2013-09-03 15:53:00
8:53 AM,52.0,44.1,74,29.53,10.0,SSE,15.0,23.0,N/A,,Overcast,150,2013-09-03 16:53:00
9:53 AM,52.0,44.1,74,29.50,10.0,SSE,20.7,27.6,N/A,,Mostly Cloudy,160,2013-09-03 17:53:00
10:53 AM,57.0,44.1,62,29.47,10.0,SSE,25.3,33.4,N/A,,Partly Cloudy,160,2013-09-03 18:53:00
11:53 AM,57.9,42.1,56,29.47,10.0,SSE,25.3,35.7,N/A,,Overcast,160,2013-09-03 19:53:00
12:53 PM,61.0,42.1,50,29.44,10.0,SSE,16.1,25.3,N/A,,Overcast,150,2013-09-03 20:53:00
1:53 PM,63.0,42.1,46,29.43,10.0,South,24.2,35.7,N/A,,Scattered Clouds,170,2013-09-03 21:53:00
2:53 PM,64.0,42.1,45,29.41,10.0,SSE,26.5,36.8,N/A,,Clear,150,2013-09-03 22:53:00
3:53 PM,63.0,41.0,45,29.41,10.0,SE,29.9,42.6,N/A,,Partly Cloudy,140,2013-09-03 23:53:00
4:53 PM,61.0,42.1,50,29.41,10.0,SSE,26.5,43.7,N/A,,Mostly Cloudy,150,2013-09-04 00:53:00
5:53 PM,59.0,42.1,53,29.40,10.0,SSE,19.6,39.1,N/A,,Overcast,150,2013-09-04 01:53:00
6:53 PM,57.0,43.0,59,29.42,10.0,SSE,25.3,40.3,0.00,,Overcast,150,2013-09-04 02:53:00
7:53 PM,54.0,45.0,72,29.41,10.0,SSE,19.6,32.2,0.00,Rain,Light Rain,150,2013-09-04 03:53:00
8:53 PM,54.0,45.0,72,29.44,10.0,SSE,18.4,33.4,0.00,,Partly Cloudy,160,2013-09-04 04:53:00
9:53 PM,54.0,45.0,72,29.46,10.0,South,10.4,21.9,N/A,,Mostly Cloudy,180,2013-09-04 05:53:00
10:53 PM,53.1,45.0,74,29.47,10.0,South,16.1,24.2,N/A,,Scattered Clouds,170,2013-09-04 06:53:00
11:53 PM,52.0,46.0,80,29.49,10.0,South,9.2,-,N/A,,Mostly Cloudy,180,2013-09-04 07:53:00